Location: Ripley
(48.3812°N, 115.4473°W)
Time: 21:54:55
(UTC+00:00)

Tiangong - Visible Passes

Search period start: 21 January 2022 00:00
Search period end: 31 January 2022 00:00
Orbit: 383 x 386 km, 41.5° (Epoch: 21 January)

Date Brightness Start Highest point End Pass type
(mag) Time Alt. Az. Time Alt. Az. Time Alt. Az.
29 Jan 3.5 02:39:55 10° SSW 02:41:10 15° S 02:41:10 15° S visible
30 Jan 3.6 01:40:57 10° S 01:42:26 13° SSE 01:43:55 10° SE visible
30 Jan 4.2 03:16:03 10° SW 03:16:28 12° SW 03:16:28 12° SW visible
